International Falls, MN

7:01 PM CDT on May 29, 2017 (GMT -0500)
Falls International

Weather History for KINL - October, 2012

Change the Weather History Date:

Monday, October 8, 2012

  Actual Average Record
Temperature  
Mean Temperature 38 °F 44 °F  
Max Temperature 42 °F 55 °F 78 °F (2003)
Min Temperature 34 °F 34 °F 20 °F (2000)
Degree Days  
Heating Degree Days 27 21  
Month to date heating degree days 184 155  
Since 1 July heating degree days 711 689  
Cooling Degree Days 0 0  
Month to date cooling degree days 0 0  
Year to date cooling degree days 222 192  
Moisture  
Dew Point 35 °F    
Average Humidity 82    
Maximum Humidity 100    
Minimum Humidity 64    
Precipitation  
Precipitation 0.19 in 0.08 in 0.66 in (1997)
Month to date precipitation 0.67 0.64  
Year to date precipitation 20.74 20.59  
Snow  
Snow 0.00 in 0.00 in 2.20 in (1976)
Month to date snowfall 2.0 0.2  
Since 1 July snowfall 2.0 0.3  
Since 1 September snowfall 2.0 0.3  
Snow Depth 0.00 in    
Sea Level Pressure  
Sea Level Pressure 29.59 in    
Wind  
Wind Speed 4 mph (SW)    
Max Wind Speed 14 mph    
Max Gust Speed 20 mph    
Visibility 9 miles    
Events Rain    
T = Trace of Precipitation, MM = Missing Value Source: NWS Daily Summary

Daily Weather History Graph

Daily Weather History Graph

Search for Another Location

Airport or City:

Trip Planner

Search our weather history database for the weather conditions in past years. The results will help you decide how hot, cold, wet, or windy it might be!

Date:

Astronomy

Oct. 08, 2012 Rise Set
Actual Time 7:23 AM CDT 6:37 PM CDT
Civil Twilight 6:52 AM CDT 7:08 PM CDT
Nautical Twilight 6:16 AM CDT 7:44 PM CDT
Astronomical Twilight 5:39 AM CDT 8:21 PM CDT
Moon No Moon Rise 2:56 PM CDT (10/8)
Length of Visible Light 12h 15m
Length of Day
11h 13m
Last Quarter, 46% of the Moon is Illuminated
Oct 8
Last Quarter
Oct 15
New
Oct 21
First Quarter
Oct 29
Full
Nov 6
Last Quarter

Hourly Weather History & Observations

Time (CDT) Temp. Windchill Dew Point Humidity Pressure Visibility Wind Dir Wind Speed Gust Speed Precip Events Conditions
12:55 AM 37.9 °F 34.4 °F 30.0 °F 73% 29.75 in 10.0 mi ESE 4.6 mph - N/A   Overcast
1:55 AM 37.9 °F 34.4 °F 28.0 °F 68% 29.73 in 10.0 mi ESE 4.6 mph - N/A   Overcast
2:55 AM 37.9 °F - 27.0 °F 65% 29.72 in 10.0 mi Calm Calm - N/A   Mostly Cloudy
3:55 AM 34.0 °F - 30.0 °F 85% 29.70 in 10.0 mi Calm Calm - N/A   Scattered Clouds
4:55 AM 37.9 °F - 27.0 °F 65% 29.68 in 10.0 mi Calm Calm - N/A   Partly Cloudy
5:55 AM 37.0 °F - 27.0 °F 67% 29.67 in 10.0 mi Calm Calm - N/A   Overcast
6:55 AM 37.0 °F - 27.0 °F 67% 29.66 in 10.0 mi Calm Calm - N/A   Overcast
7:55 AM 37.0 °F - 28.0 °F 70% 29.66 in 10.0 mi Calm Calm - N/A   Overcast
8:55 AM 39.0 °F - 28.9 °F 67% 29.65 in 10.0 mi Calm Calm - N/A   Overcast
9:55 AM 39.9 °F 35.8 °F 30.9 °F 70% 29.64 in 10.0 mi SSE 5.8 mph - 0.00 in Rain Light Rain
10:55 AM 41.0 °F 39.0 °F 32.0 °F 70% 29.61 in 9.0 mi ESE 3.5 mph - 0.00 in   Overcast
11:55 AM 39.9 °F 33.9 °F 35.1 °F 83% 29.59 in 7.0 mi East 9.2 mph - 0.01 in Rain Light Rain
12:55 PM 41.0 °F 36.4 °F 37.0 °F 86% 29.57 in 7.0 mi SE 6.9 mph - 0.01 in Rain Light Rain
1:55 PM 39.9 °F 34.5 °F 37.9 °F 93% 29.55 in 6.0 mi SE 8.1 mph - 0.05 in Rain Light Rain
2:10 PM 39.2 °F 33.6 °F 37.4 °F 93% 29.50 in 7.0 mi SE 8.1 mph - 0.02 in Rain Light Rain
2:55 PM 41.0 °F 35.8 °F 39.2 °F 93% 29.48 in 8.0 mi ESE 8.1 mph - N/A Rain Light Rain
3:36 PM 41.0 °F 37.1 °F 39.2 °F 93% 29.49 in 6.0 mi SSE 5.8 mph - 0.02 in Rain Light Rain
3:55 PM 41.0 °F 38.0 °F 39.9 °F 96% 29.52 in 9.0 mi Variable 4.6 mph - 0.03 in Rain Light Rain
4:55 PM 42.1 °F - 39.9 °F 92% 29.52 in 10.0 mi Calm Calm - 0.00 in Rain Light Rain
5:55 PM 42.1 °F 39.2 °F 41.0 °F 96% 29.52 in 6.0 mi SSW 4.6 mph - 0.02 in Rain Light Rain
6:55 PM 42.1 °F 39.2 °F 41.0 °F 96% 29.54 in 8.0 mi West 4.6 mph - 0.01 in Rain Light Rain
7:06 PM 42.8 °F 40.1 °F 41.0 °F 93% 29.51 in 10.0 mi West 4.6 mph - 0.00 in   Overcast
7:40 PM 42.8 °F 37.0 °F 39.2 °F 87% 29.52 in 10.0 mi West 10.4 mph - 0.00 in   Overcast
7:47 PM 42.8 °F 38.6 °F 39.2 °F 87% 29.52 in 10.0 mi West 6.9 mph - 0.00 in   Overcast
7:55 PM 41.0 °F 34.7 °F 39.0 °F 93% 29.56 in 10.0 mi WNW 10.4 mph 16.1 mph 0.00 in   Overcast
8:09 PM 41.0 °F 34.7 °F 39.2 °F 93% 29.52 in 10.0 mi West 10.4 mph - N/A   Overcast
8:36 PM 39.2 °F 33.6 °F 37.4 °F 93% 29.53 in 10.0 mi WNW 8.1 mph - N/A   Overcast
8:51 PM 39.2 °F 31.6 °F 37.4 °F 93% 29.54 in 10.0 mi West 12.7 mph - N/A   Overcast
8:55 PM 39.9 °F 32.9 °F 37.0 °F 89% 29.57 in 10.0 mi West 11.5 mph 19.6 mph N/A   Overcast
9:55 PM 39.0 °F 34.8 °F 37.9 °F 96% 29.59 in 10.0 mi West 5.8 mph - N/A   Overcast
10:55 PM 39.9 °F 35.8 °F 39.0 °F 97% 29.59 in 10.0 mi West 5.8 mph - N/A   Overcast
11:10 PM 39.2 °F 34.2 °F 39.2 °F 100% 29.56 in 7.0 mi West 6.9 mph - 0.00 in Rain Light Rain
11:55 PM 39.9 °F 35.1 °F 37.9 °F 93% 29.60 in 10.0 mi WSW 6.9 mph - 0.00 in   Overcast